This is the latest recevied weather packets stored in our database for station/object IZ1UQG-2. If no packets are shown the sender has not sent any weather packets the latest 10 day(s).
| Time | Temp. | Humidity | Pressure | Rain* | Wind** | Luminosity | Snow |
|---|---|---|---|---|---|---|---|
| 1777577464 | 15.56° C | 69% | 1021.9 hPa | 0 mm | - | 0 W/m² | - |
| 1777577344 | 15.56° C | 69% | 1021.8 hPa | 0 mm | - | 0 W/m² | - |
| 1777576564 | 15.56° C | 68% | 1021.6 hPa | 0 mm | - | 0 W/m² | - |
| 1777576264 | 15.56° C | 68% | 1021.6 hPa | 0 mm | - | 0 W/m² | - |
| 1777575784 | 15.56° C | 68% | 1021.4 hPa | 0 mm | - | 0 W/m² | - |
| 1777575724 | 15.56° C | 68% | 1021.4 hPa | 0 mm | - | 0 W/m² | - |
| 1777575184 | 15.56° C | 69% | 1021.2 hPa | 0 mm | - | 0 W/m² | - |
| 1777574945 | 15.56° C | 69% | 1021.2 hPa | 0 mm | - | 0 W/m² | - |
| 1777574824 | 15.56° C | 69% | 1021.1 hPa | 0 mm | - | 0 W/m² | - |
| 1777574584 | 15.56° C | 70% | 1021 hPa | 0 mm | - | 0 W/m² | - |
| 1777574464 | 15.56° C | 70% | 1021 hPa | 0 mm | - | 0 W/m² | - |
| 1777574165 | 15.56° C | 70% | 1020.9 hPa | 0 mm | - | 0 W/m² | - |
| 1777573744 | 15.56° C | 69% | 1020.8 hPa | 0 mm | - | 0 W/m² | - |
| 1777572965 | 16.11° C | 67% | 1020.6 hPa | 0 mm | - | 7 W/m² | - |
| 1777572365 | 16.67° C | 64% | 1020.6 hPa | 0 mm | - | 14 W/m² | - |
| 1777572245 | 16.67° C | 63% | 1020.5 hPa | 0 mm | - | 16 W/m² | - |
| 1777572064 | 16.67° C | 62% | 1020.4 hPa | 0 mm | - | 19 W/m² | - |
| 1777571285 | 16.67° C | 58% | 1020.3 hPa | 0 mm | - | 32 W/m² | - |
| 1777570865 | 16.67° C | 58% | 1020.2 hPa | 0 mm | - | 39 W/m² | - |
| 1777569545 | 17.22° C | 53% | 1020.2 hPa | 0 mm | - | 32 W/m² | - |
| 1777569425 | 17.22° C | 54% | 1020.2 hPa | 0 mm | - | 32 W/m² | - |
| 1777569365 | 17.22° C | 54% | 1020.1 hPa | 0 mm | - | 32 W/m² | - |
| 1777569185 | 17.22° C | 53% | 1020.1 hPa | 0 mm | - | 35 W/m² | - |
| 1777569124 | 17.22° C | 53% | 1020.2 hPa | 0 mm | - | 35 W/m² | - |
| 1777569072 | 17.22° C | 53% | 1020.2 hPa | 0 mm | - | 37 W/m² | - |
* Rain latest hour (hover to see other rain measurements)
** Current wind speed in m/s (hover to see current wind gust speed)